SERIAL,TIME,MODEL,SN(OPTODE),OXYGEN,SATURATION,TEMPERATURE,CALPHASE,TCPHASE,C1RPH,C2RPH,C1AMP,C2AMP,RAWTEMP,CHECK
1,1311456672,4330,354,200.7742004394531200,61.3440399169921900,13.2021799087524410,34.4422798156738300,36.7430496215820300,39.7558288574218750,3.0127789974212646,707.9404296875000000,747.3914184570312000,222.4268951416015600,40562
1,1311460260,4330,354,200.7176055908203000,61.3195686340332000,13.1969404220581050,34.4484405517578100,36.7490501403808600,39.7386016845703100,2.9895479679107666,707.9957885742188000,747.4199829101562000,222.6022949218750000,64629
1,1311463860,4330,354,199.6743927001953000,61.0107116699218750,13.2041702270507810,34.5075111389160160,36.8065910339355500,39.7897796630859400,2.9831850528717040,709.3178710937500000,747.3582153320312000,222.3601074218750000,51724
1,1311467460,4330,354,200.8650054931640600,61.3425483703613300,13.1808099746704100,34.4473800659179700,36.7480201721191400,39.7260398864746100,2.9780271053314210,707.5847778320312000,747.2760009765625000,223.1425018310547000,43342
1,1311471060,4330,354,199.7646026611328000,61.0015716552734400,13.1771802902221680,34.5159301757812500,36.8147888183593750,39.7980690002441400,2.9832758903503420,709.0894165039062000,747.2426147460938000,223.2640991210937500,46965
1,1311474660,4330,354,199.7433013916015600,61.0048789978027340,13.1844100952148440,34.5134887695312500,36.8124198913574200,39.7912788391113300,2.9788589477539062,708.9736938476562000,747.2260742187500000,223.0218963623047000,58955
1,1311478260,4330,354,200.8226928710937500,61.3067893981933600,13.1641302108764650,34.4583702087402340,36.7587318420410160,39.7323303222656250,2.9736020565032960,707.4324951171875000,747.1461181640625000,223.7010040283203000,33924
1,1311481860,4330,354,199.0303955078125000,60.7562599182128900,13.1616096496582030,34.5684509277343750,36.8659591674804700,39.8420600891113300,2.9760971069335938,709.9099731445312000,747.0549926757812000,223.7852935791015600,49
1,1311485460,4330,354,197.0401000976562500,60.1415214538574200,13.1562900543212890,34.6925201416015600,36.9868087768554700,39.9574394226074200,2.9706339836120605,712.9295043945312000,747.0695800781250000,223.9636993408203000,38242
1,1311489060,4330,354,200.0892944335937500,61.0839996337890600,13.1649103164672850,34.5025291442871100,36.8017311096191400,39.7777290344238300,2.9759900569915770,708.3419799804688000,747.0045166015625000,223.6748962402343800,59791
1,1311492660,4330,354,199.9777984619140600,61.0507888793945300,13.1655302047729500,34.5092315673828100,36.8082695007324200,39.7766113281250000,2.9683461189270020,708.5731811523438000,746.9837036132812000,223.6542053222656200,28120
1,1311496260,4330,354,198.9057006835937500,60.7232894897460940,13.1654100418090820,34.5740318298339840,36.8713912963867200,39.8427581787109400,2.9713668823242188,710.1508789062500000,747.0576171875000000,223.6582031250000000,13584
1,1311499860,4330,354,200.9230041503906200,61.3444709777832000,13.1692895889282230,34.4495811462402340,36.7501602172851560,39.7159690856933600,2.9658129215240480,707.1364135742188000,747.1411132812500000,223.5281982421875000,47650
1,1311503460,4330,354,195.7662963867187500,59.7701606750488300,13.1693601608276370,34.7644615173339840,37.0568809509277340,40.0213813781738300,2.9644930362701416,715.0178222656250000,747.1885986328125000,223.5260009765625000,4701
1,1311507060,4330,354,193.0335998535156200,58.9340515136718750,13.1680097579956050,34.9361991882324200,37.2241706848144500,40.1870002746582000,2.9628219604492188,719.2755737304688000,747.1550292968750000,223.5711975097656200,5416
1,1311510660,4330,354,194.4338073730468800,59.3510704040527340,13.1600999832153320,34.8520584106445300,37.1422080993652340,40.1039886474609400,2.9617769718170166,717.1754150390625000,747.2307739257812000,223.8359069824218800,64998
1,1311514260,4330,354,195.1681976318359400,59.5740203857421900,13.1591901779174800,34.8072319030761700,37.0985412597656250,40.0596885681152340,2.9611508846282960,716.0626220703125000,747.1945800781250000,223.8663024902343800,8477
1,1311517860,4330,354,197.1817016601562500,60.1968116760253900,13.1652898788452150,34.6790008544921900,36.9736404418945300,39.9327507019043000,2.9591140747070312,712.7564697265625000,747.0797119140625000,223.6622924804687500,26718
1,1311521460,4330,354,197.4730987548828000,60.2920799255371100,13.1699600219726560,34.6590499877929700,36.9542083740234400,39.9101600646972660,2.9559481143951416,712.2473144531250000,746.9979248046875000,223.5059967041015600,32020
1,1311525060,4330,354,192.5077972412109400,58.7766914367675800,13.1704301834106450,34.9677200317382800,37.2548789978027340,40.2121391296386700,2.9572679996490480,719.9506225585938000,747.0361938476562000,223.4902038574218800,50279
1,1311528660,4330,354,191.1199951171875000,58.3521881103515600,13.1698303222656250,35.0559005737304700,37.3407707214355500,40.2967987060546900,2.9560239315032960,722.1356201171875000,747.1138916015625000,223.5102996826172000,1159
1,1311532260,4330,354,198.7268066406250000,60.6762084960937500,13.1709699630737300,34.5820198059082000,36.8791694641113300,39.8339996337890600,2.9548261165618896,710.2879028320312000,746.9127197265625000,223.4718933105468800,9640
1,1311535860,4330,354,199.0659942626953000,60.7800407409668000,13.1711502075195310,34.5615997314453100,36.8592796325683600,39.8199310302734400,2.9606549739837646,709.8519897460938000,747.0535888671875000,223.4660034179687500,13172
1,1311539460,4330,354,196.4342956542968800,59.9845085144043000,13.1771202087402340,34.7197418212890600,37.0133209228515600,39.9705505371093750,2.9572300910949707,713.7028808593750000,746.8986816406250000,223.2662048339843800,16238
1,1311543060,4330,354,191.8139953613281200,58.5729789733886700,13.1766395568847660,35.0087814331054700,37.2948684692382800,40.2487297058105500,2.9538650512695312,720.8643798828125000,746.8516845703125000,223.2821960449218800,5539
1,1311546660,4330,354,188.8975067138672000,57.6811408996582000,13.1756496429443360,35.1955490112304700,37.4767990112304700,40.4311103820800800,2.9543080329895020,725.5122070312500000,746.9011230468750000,223.3153991699218800,22315
1,1311550260,4330,354,191.3580932617187500,58.4309883117675800,13.1744899749755860,35.0386810302734400,37.3240013122558600,40.2767791748046900,2.9527819156646730,721.5748291015625000,746.8374023437500000,223.3542022705078000,10666
1,1311553860,4330,354,193.1976013183593800,58.9934997558593750,13.1751203536987300,34.9217414855957000,37.2100791931152340,40.1622009277343750,2.9521179199218750,718.6912841796875000,746.8494873046875000,223.3330993652343800,20333
1,1311557460,4330,354,189.6212005615234400,57.9009819030761700,13.1747798919677730,35.1492004394531250,37.4316596984863300,40.3842582702636700,2.9526059627532960,724.3405761718750000,746.8779907226562000,223.3442993164062500,35824
1,1311561060,4330,354,192.5948944091797000,58.7941818237304700,13.1634702682495120,34.9659385681152340,37.2531394958496100,40.2048988342285160,2.9517519474029540,719.8262939453125000,747.1250000000000000,223.7230072021484400,5387
1,1311564660,4330,354,189.9136962890625000,57.9737701416015600,13.1620101928710940,35.1372604370117200,37.4200210571289060,40.3761596679687500,2.9561390876770020,723.9218139648438000,746.9221801757812000,223.7720031738281200,63883
1,1311568260,4330,354,189.6562957763672000,57.8947715759277340,13.1616802215576170,35.1542091369628900,37.4365310668945300,40.3941192626953100,2.9575879573822020,724.3892822265625000,746.8956909179688000,223.7828979492187500,53309
1,1311571860,4330,354,186.0039062500000000,56.7798881530761700,13.1617097854614260,35.3907012939453100,37.6668891906738300,40.6181182861328100,2.9512250423431396,730.1674804687500000,746.8524780273438000,223.7819976806640600,48168
1,1311575460,4330,354,182.6358032226562500,55.7517509460449200,13.1617097854614260,35.6141204833984400,37.8845214843750000,40.8463706970214840,2.9618530273437500,735.5186767578125000,746.9102172851562000,223.7821960449218800,51087
1,1311579060,4330,354,184.6634063720703000,56.3708992004394500,13.1618900299072270,35.4787788391113300,37.7526893615722660,40.7058296203613300,2.9531400203704834,732.3690185546875000,746.8895263671875000,223.7760009765625000,56808
1,1311582660,4330,354,199.2120971679687500,60.8271217346191400,13.1729803085327150,34.5514602661132800,36.8493995666503900,39.8050384521484400,2.9556350708007812,709.5026855468750000,746.9572753906250000,223.4046936035156200,42706
1,1311586260,4330,354,197.6062011718750000,60.3499183654785160,13.1827497482299800,34.6445999145507800,36.9401283264160160,39.8888702392578100,2.9487380981445312,711.7791748046875000,746.8339233398438000,223.0776062011718800,21799
1,1311589860,4330,354,197.3491058349609400,60.2855186462402340,13.1932296752929690,34.6550788879394500,36.9503288269043000,39.9040412902832000,2.9537050724029540,712.0535888671875000,746.7764282226562000,222.7266998291015600,45355
1,1311593460,4330,354,195.0556945800781200,59.5834083557128900,13.1920900344848630,34.7976989746093750,37.0892601013183600,40.0387001037597660,2.9494318962097170,715.5888061523438000,746.7031250000000000,222.7646942138672000,12438
1,1311597060,4330,354,193.1898040771484400,59.0179214477539060,13.1955099105834960,34.9126815795898440,37.2012596130371100,40.1541595458984400,2.9528961181640625,718.2858886718750000,746.6281738281250000,222.6504058837890600,60539
1,1311600660,4330,354,181.8412017822265600,55.5503196716308600,13.1949596405029300,35.6501502990722660,37.9196205139160160,40.8740692138671900,2.9544448852539062,736.4846191406250000,746.5427246093750000,222.6687011718750000,62586
1,1311604260,4330,354,193.3968963623047000,59.0536003112793000,13.1745700836181640,34.9101181030273440,37.1987686157226560,40.1467895507812500,2.9480209350585938,718.0714111328125000,746.5859985351562000,223.3515930175781200,50814
1,1311607860,4330,354,184.5661010742187500,56.3506507873535160,13.1694002151489260,35.4817695617675800,37.7555999755859400,40.7078208923339840,2.9522249698638916,732.0789184570312000,746.5291137695312000,223.5245056152343800,50938
1,1311611460,4330,354,185.2530975341797000,56.5556602478027340,13.1656599044799800,35.4379310607910160,37.7128982543945300,40.6622314453125000,2.9493329524993896,730.9235839843750000,746.5529785156250000,223.6497039794922000,45140
1,1311615060,4330,354,189.1423034667968800,57.7394409179687500,13.1628904342651370,35.1862487792968750,37.4677391052246100,40.4201011657714840,2.9523620605468750,724.7290039062500000,746.5443115234375000,223.7425994873047000,30315
1,1311618660,4330,354,189.2691955566406200,57.7778816223144500,13.1626501083374020,35.1782684326171900,37.4599685668945300,40.4131202697753900,2.9531478881835938,724.5587768554688000,746.5761718750000000,223.7505035400390600,59118
1,1311622260,4330,354,185.1150054931640600,56.4999084472656250,13.1548700332641600,35.4527511596679700,37.7273406982421900,40.6815795898437500,2.9542388916015625,731.2802734375000000,746.5936279296875000,224.0111999511718800,50166
1,1311625860,4330,354,196.9082031250000000,60.1027793884277340,13.1574001312255860,34.6998100280761700,36.9939002990722660,39.9461784362793000,2.9522778987884520,712.7896118164062000,746.7238769531250000,223.9263000488281200,11501
1,1311629460,4330,354,192.1172027587890600,58.6520195007324200,13.1662902832031250,34.9948005676269500,37.2812500000000000,40.2357292175293000,2.9544830322265625,720.1782836914062000,746.6237182617188000,223.6287994384765600,27247
1,1311633060,4330,354,192.5818939208984400,58.8050003051757800,13.1747398376464840,34.9610710144043000,37.2484016418457000,40.2041816711425800,2.9557800292968750,719.2230224609375000,746.6350708007812000,223.3457946777343800,38208
1,1311636660,4330,354,194.2615966796875000,59.3199882507324200,13.1763296127319340,34.8549690246582000,37.1450500488281250,40.1009101867675800,2.9558560848236084,716.5498046875000000,746.6043701171875000,223.2926940917968800,39668
1,1311640260,4330,354,190.3836975097656200,58.1477012634277340,13.1854896545410160,35.0949401855468750,37.3787994384765600,40.3289184570312500,2.9501190185546875,722.4735717773438000,746.4354248046875000,222.9857025146484400,41666
1,1311643860,4330,354,191.2330017089843800,58.4145317077636700,13.1911897659301760,35.0382690429687500,37.3236007690429700,40.2787284851074200,2.9551320075988770,721.1036987304688000,746.2592163085938000,222.7947998046875000,26447
1,1311647460,4330,354,190.2507019042968800,58.0949287414550800,13.1760997772216800,35.1082992553710940,37.3918113708496100,40.3476295471191400,2.9558179378509520,722.5449218750000000,746.2788085937500000,223.3000030517578000,53784
1,1311651060,4330,354,182.9008941650390600,55.8393096923828100,13.1670503616333000,35.5933914184570300,37.8643302917480500,40.8137702941894500,2.9494400024414062,734.4901733398438000,746.2089233398438000,223.6033020019531200,42810
1,1311654660,4330,354,181.9058990478515600,55.5341987609863300,13.1659898757934570,35.6605911254882800,37.9297904968261700,40.8748283386230500,2.9450380802154540,736.0654907226562000,746.2307128906250000,223.6387023925781200,20835
1,1311658260,4330,354,186.0166931152343800,56.7953109741210940,13.1708202362060550,35.3852386474609400,37.6615791320800800,40.6162910461425800,2.9547119140625000,729.2495117187500000,746.1876220703125000,223.4770965576172000,24955
1,1311661860,4330,354,179.4573059082031200,54.7890090942382800,13.1678800582885740,35.8258399963378900,38.0907516479492200,41.0464897155761700,2.9557418823242188,740.0477905273438000,746.2327880859375000,223.5756072998047000,27028
1,1311665460,4330,354,177.2445068359375000,54.1087417602539060,13.1639995574951170,35.9800109863281250,38.2409286499023440,41.1893501281738300,2.9484179019927980,743.8831176757812000,746.1685180664062000,223.7053070068359400,624
1,1311669060,4330,354,194.5083007812500000,59.3919906616210940,13.1738395690917970,34.8406295776367200,37.1310691833496100,40.0751609802246100,2.9440920352935790,715.7589111328125000,746.1118774414062000,223.3759002685547000,39205
1,1311672660,4330,354,186.9306030273437500,57.0801200866699200,13.1753196716308600,35.3234596252441400,37.6013908386230500,40.5573616027832000,2.9559628963470460,727.4777832031250000,745.9287109375000000,223.3265075683593800,44181
1,1311676260,4330,354,175.2160034179687500,53.5057296752929700,13.1775999069213870,36.1137199401855500,38.3711814880371100,41.3189506530761700,2.9477770328521730,746.8673706054688000,745.8157958984375000,223.2498931884765600,51378
1,1311679860,4330,354,184.7949066162109400,56.4210395812988300,13.1698303222656250,35.4661483764648440,37.7403907775878900,40.6913299560546900,2.9509429931640625,730.8242187500000000,745.7725219726562000,223.5101013183593800,19907
1,1311683460,4330,354,176.4483032226562500,53.8721618652343750,13.1693897247314450,36.0319519042968750,38.2915306091308600,41.2402000427246100,2.9486770629882812,744.7885742187500000,745.7257080078125000,223.5249938964843800,48739
1,1311687060,4330,354,177.7700958251953000,54.2752494812011700,13.1690101623535160,35.9408912658691400,38.2028312683105500,41.1545104980468750,2.9516830444335938,742.4346923828125000,745.6685791015625000,223.5375976562500000,10660
1,1311690660,4330,354,188.3000946044922000,57.4905395507812500,13.1692895889282230,35.2374000549316400,37.5175590515136700,40.4671516418457000,2.9495849609375000,724.9805908203125000,745.5554809570312000,223.5283050537109400,18288
1,1311694260,4330,354,190.3854064941406200,58.1359405517578100,13.1760101318359380,35.0997505187988300,37.3834800720214840,40.3311195373535160,2.9476320743560790,721.6812744140625000,745.4458007812500000,223.3032073974609400,4336
1,1311697860,4330,354,183.5312957763672000,56.0491218566894500,13.1809301376342770,35.5443992614746100,37.8166084289550800,40.7624092102050800,2.9457929134368896,732.5427856445312000,745.3328857421875000,223.1385040283203000,57686
1,1311701460,4330,354,181.5346069335937500,55.4344482421875000,13.1769599914550780,35.6798896789550800,37.9485893249511700,40.8915596008300800,2.9429700374603270,735.8615722656250000,745.3499755859375000,223.2713928222656200,30996
1,1311705060,4330,354,180.6930999755859400,55.1801490783691400,13.1791296005249020,35.7360000610351560,38.0032386779785160,40.9447517395019500,2.9415049552917480,737.1021118164062000,745.3474121093750000,223.1988067626953000,54166
1,1311708660,4330,354,178.0841979980468800,54.3818893432617200,13.1778497695922850,35.9144096374511700,38.1770286560058600,41.1205101013183600,2.9434809684753420,741.5906982421875000,745.3057861328125000,223.2416992187500000,857
1,1311712260,4330,354,179.2483062744140600,54.7357902526855500,13.1765699386596680,35.8349494934082000,38.0996208190918000,41.0478515625000000,2.9482269287109375,739.4993286132812000,745.3361816406250000,223.2846069335937500,14991
1,1311715860,4330,354,183.9709014892578000,56.1774482727050800,13.1762199401855470,35.5178909301757800,37.7907905578613300,40.7355804443359400,2.9447939395904540,731.5841064453125000,745.2634887695312000,223.2962951660156200,509
1,1311719460,4330,354,188.4230957031250000,57.5374794006347660,13.1765899658203120,35.2257003784179700,37.5061683654785160,40.4476203918457000,2.9414439201354980,724.5236206054688000,745.2349853515625000,223.2837066650390600,45220
1,1311723060,4330,354,192.5475006103515600,58.8062286376953100,13.1836900711059570,34.9589309692382800,37.2463188171386700,40.1951408386230500,2.9488298892974854,717.7830810546875000,745.0396728515625000,223.0460052490234400,40603
1,1311726660,4330,354,185.3565979003906200,56.6116790771484400,13.1849899291992190,35.4213294982910160,37.6967315673828100,40.6462707519531250,2.9495389461517334,729.2307739257812000,745.1066894531250000,223.0025939941406200,3436
1,1311730260,4330,354,178.3630981445312500,54.4757614135742200,13.1850204467773440,35.8921089172363300,38.1553001403808600,41.1045112609863300,2.9492030143737793,740.6707153320312000,744.9965820312500000,223.0016937255859400,52843
1,1311733860,4330,354,184.0245056152343800,56.1996803283691400,13.1808900833129880,35.5120887756347660,37.7851409912109400,40.7282714843750000,2.9431300163269043,731.3162231445312000,745.0283813476562000,223.1396942138672000,29225
1,1311737460,4330,354,181.8977050781250000,55.5379791259765600,13.1710395812988280,35.6585197448730500,37.9277687072753900,40.8751792907714840,2.9474110603332520,734.9340209960938000,745.0612182617188000,223.4694976806640600,50625
1,1311741060,4330,354,179.9833068847656200,54.9530601501464840,13.1707096099853520,35.7884788513183600,38.0543708801269500,41.0031013488769500,2.9487299919128420,738.0249023437500000,745.0401000976562000,223.4808044433593800,5722
1,1311744660,4330,354,184.3751068115234400,56.2807617187500000,13.1601800918579100,35.4988403320312500,37.7722282409668000,40.7157402038574200,2.9435119628906250,730.9011230468750000,745.0922851562500000,223.8334960937500000,41926
1,1311748260,4330,354,182.9790954589843800,55.8544998168945300,13.1600904464721680,35.5921211242675800,37.8630905151367200,40.8109397888183600,2.9478530883789062,733.0764770507812000,744.9141235351562000,223.8363037109375000,16547
1,1311751860,4330,354,195.8829956054687500,59.7942886352539060,13.1607303619384770,34.7617988586425800,37.0542907714843750,39.9964599609375000,2.9421689510345460,712.6041870117188000,744.9655761718750000,223.8148040771484400,54130
1,1311755460,4330,354,195.4477996826172000,59.6783485412597660,13.1734199523925780,34.7822303771972660,37.0741882324218750,40.0228309631347660,2.9486389160156250,713.0648803710938000,744.8494262695312000,223.3899993896484400,55451
1,1311759060,4330,354,187.9593963623047000,57.3937110900878900,13.1749095916748050,35.2569503784179700,37.5366096496582000,40.4854583740234400,2.9488530158996580,724.7307128906250000,744.7919921875000000,223.3401031494140600,60700
1,1311762660,4330,354,180.6206970214843800,55.1512107849121100,13.1735801696777340,35.7437896728515600,38.0108299255371100,40.9587593078613300,2.9479219913482666,736.6734008789062000,744.7399291992188000,223.3847045898437500,59767
1,1311766260,4330,354,191.5084075927734400,58.4774093627929700,13.1749000549316400,35.0290184020996100,37.3145904541015600,40.2565498352050800,2.9419560432434080,719.1585083007812000,744.6566772460938000,223.3403015136718800,47133
1,1311769860,4330,354,195.4701995849609400,59.7014808654785160,13.1856803894042970,34.7745704650878900,37.0667304992675800,40.0148887634277340,2.9481580257415770,712.7933959960938000,744.6057128906250000,222.9795074462890600,54173
1,1311773460,4330,354,192.0863952636718800,58.6755485534668000,13.1914196014404300,34.9836006164550800,37.2703514099121100,40.2177391052246100,2.9473950862884520,717.8923950195312000,744.5695190429688000,222.7870941162109400,44348
1,1311777060,4330,354,184.7642059326172000,56.4400215148925800,13.1923503875732420,35.4570693969726560,37.7315406799316400,40.6794281005859400,2.9478840827941895,729.4531250000000000,744.4829711914062000,222.7561950683593800,65094
1,1311780660,4330,354,184.9824066162109400,56.5070114135742200,13.1926097869873050,35.4427680969238300,37.7176094055175800,40.6706809997558600,2.9530720710754395,729.2296142578125000,744.4887695312500000,222.7471923828125000,8318
1,1311784260,4330,354,187.6641998291015600,57.3166618347168000,13.1851501464843750,35.2706108093261700,37.5499114990234400,40.4973411560058600,2.9474329948425293,724.9144287109375000,744.5872802734375000,222.9971923828125000,45284
1,1311787860,4330,354,187.4989013671875000,57.2549209594726560,13.1763401031494140,35.2857894897460940,37.5647010803222660,40.5099792480468750,2.9452819824218750,725.2434082031250000,744.5565795898438000,223.2922058105468800,42531
1,1311791460,4330,354,185.3518981933593800,56.5921401977539060,13.1706399917602540,35.4290008544921900,37.7042007446289060,40.6530914306640600,2.9488909244537354,728.7465820312500000,744.5654907226562000,223.4830932617187500,17305
1,1311795060,4330,354,186.6244964599609400,56.9692382812500000,13.1616497039794920,35.3497009277343750,37.6269493103027340,40.5693397521972660,2.9423830509185790,726.7357788085938000,744.6254882812500000,223.7839965820312500,7366
1,1311798660,4330,354,187.0424041748047000,57.0955810546875000,13.1606702804565430,35.3235893249511700,37.6015205383300800,40.5446205139160160,2.9430921077728270,726.0216064453125000,744.5592041015625000,223.8170013427734400,25318
1,1311802260,4330,354,192.2727050781250000,58.6931495666503900,13.1614398956298830,34.9874801635742200,37.2741203308105500,40.2143402099609400,2.9402160644531250,717.7932739257812000,744.5634155273438000,223.7911071777343800,12218
1,1311805860,4330,354,193.7720031738281200,59.1501007080078100,13.1608896255493160,34.8934783935546900,37.1825599670410160,40.1212615966796900,2.9387049674987793,715.4876098632812000,744.5250854492188000,223.8094940185547000,6177
1,1311809460,4330,354,195.5081024169922000,59.6922988891601560,13.1700801849365230,34.7801094055175800,37.0721282958984400,40.0163612365722660,2.9442288875579834,712.5739746093750000,744.3917236328125000,223.5019989013672000,41759
1,1311813060,4330,354,187.9962005615234400,57.4003295898437500,13.1712903976440430,35.2559509277343750,37.5356407165527340,40.4832496643066400,2.9476089477539062,724.3112792968750000,744.4451293945312000,223.4611053466797000,49676
1,1311816660,4330,354,185.2059020996093800,56.5486488342285160,13.1715002059936520,35.4383201599121100,37.7132797241210940,40.6545410156250000,2.9412610530853270,728.7700195312500000,744.3264770507812000,223.4541015625000000,23203
1,1311820260,4330,354,195.0404968261718800,59.5510482788085940,13.1712303161621100,34.8084182739257800,37.0997009277343750,40.0459098815918000,2.9462130069732666,713.2672119140625000,744.3411865234375000,223.4633026123047000,11147
1,1311823860,4330,354,196.0245971679687500,59.8573989868164060,13.1756200790405270,34.7457084655761700,37.0386199951171900,39.9864006042480500,2.9477839469909670,711.6499023437500000,744.3118286132812000,223.3162994384765600,24108